weather.gov     
National Weather Service

Terminal Aerodrome Forecast
NWS Homepage
This page is being discontinued on March 12, 2014.
The same data is available at this site. Please update your bookmarks.
Thank you, and we apologize for the inconvenience.
Please send an email to SR-SRH.Webmaster@noaa.gov with any concerns.


Current Version
Previous Version:    01  02  03  04  05  06  07  08  09  10  11  12  13  14  15  16  17  18  19  20  21  22  23  24  25  
[Printable]
956
FTUS42 KTAE 231700 RRA
TAFVLD
TAF
KVLD 231745Z 2318/2418 17010KT P6SM SCT006 BKN012 OVC020
     FM232200 18012G20KT P6SM VCTS BKN012CB OVC025
     FM240100 19012G18KT 4SM -TSRA BKN015CB BKN030
      TEMPO 2402/2404 VRB15G25KT 2SM +TSRA BKN007 OVC012CB
     FM240600 19008KT 3SM BR OVC006
     FM241600 23007KT P6SM BKN020=


U.S. Dept. of Commerce
NOAA National Weather Service
1325 East West Highway
Silver Spring, MD 20910
E-mail: w-nws.webmaster@noaa.gov
Page last modified: May 16, 2007
NATIONAL WEATHER SERVICE: for Safety, for Work, for Fun - FOR LIFE